Medford, WI

8:55 PM CDT on April 29, 2017 (GMT -0500)
Taylor County

Weather History for KMDZ - September, 2013

Change the Weather History Date:

Saturday, September 14, 2013

  Actual Average Record
Temperature  
Mean Temperature 53 °F -  
Max Temperature 69 °F 68 °F 82 °F (1990)
Min Temperature 37 °F 47 °F 33 °F (1975)
Degree Days  
Heating Degree Days 12    
Growing Degree Days 3 (Base 50)    
Moisture  
Dew Point 43 °F    
Average Humidity 68    
Maximum Humidity 99    
Minimum Humidity 41    
Precipitation  
Precipitation 0.22 in - - ()
Sea Level Pressure  
Sea Level Pressure 30.06 in    
Wind  
Wind Speed 5 mph (SSW)    
Max Wind Speed 14 mph    
Max Gust Speed 20 mph    
Visibility 10 miles    
Events Rain    
Averages and records for this station are not official NWS values.
T = Trace of Precipitation, MM = Missing Value Source: NWS Daily Summary

Daily Weather History Graph

Daily Weather History Graph

Search for Another Location

Airport or City:

Trip Planner

Search our weather history database for the weather conditions in past years. The results will help you decide how hot, cold, wet, or windy it might be!

Date:

Astronomy

Sep. 14, 2013 Rise Set
Actual Time 6:38 AM CDT 7:13 PM CDT
Civil Twilight 6:09 AM CDT 7:43 PM CDT
Nautical Twilight 5:34 AM CDT 8:17 PM CDT
Astronomical Twilight 4:57 AM CDT 8:54 PM CDT
Moon 4:05 PM CDT (9/14) 12:59 AM CDT (9/14)
Length of Visible Light 13h 33m
Length of Day
12h 34m
Waxing Gibbous, 72% of the Moon is Illuminated
Sep 14
Waxing Gibbous
Sep 19
Full
Sep 26
Last Quarter
Oct 4
New
Oct 11
First Quarter

Hourly Weather History & Observations

Time (CDT) Temp. Windchill Dew Point Humidity Pressure Visibility Wind Dir Wind Speed Gust Speed Precip Events Conditions
12:15 AM 38.8 °F - 38.5 °F 99% 30.13 in 10.0 mi Calm Calm - N/A   Clear
12:35 AM 40.6 °F - 40.1 °F 98% 30.13 in 10.0 mi Calm Calm - N/A   Clear
12:55 AM 38.7 °F - 38.1 °F 98% 30.13 in 10.0 mi Calm Calm - N/A   Clear
1:15 AM 39.0 °F 36.8 °F 38.7 °F 99% 30.13 in 10.0 mi South 3.5 mph - N/A   Clear
1:35 AM 40.3 °F 38.2 °F 37.4 °F 89% 30.13 in 10.0 mi South 3.5 mph - N/A   Clear
1:55 AM 40.3 °F 38.2 °F 37.4 °F 89% 30.12 in 10.0 mi SSE 3.5 mph - N/A   Clear
2:15 AM 43.0 °F 39.5 °F 38.3 °F 84% 30.12 in 10.0 mi SSE 5.8 mph - N/A   Clear
2:35 AM 43.2 °F 39.7 °F 38.3 °F 83% 30.12 in 10.0 mi SSE 5.8 mph - N/A   Clear
2:55 AM 41.2 °F 38.2 °F 37.0 °F 85% 30.12 in 10.0 mi South 4.6 mph - N/A   Clear
3:15 AM 40.6 °F - 36.9 °F 86% 30.12 in 10.0 mi Calm Calm - N/A   Clear
3:35 AM 41.2 °F - 37.4 °F 86% 30.11 in 10.0 mi Calm Calm - N/A   Clear
3:55 AM 40.1 °F 38.0 °F 37.0 °F 89% 30.11 in 10.0 mi South 3.5 mph - N/A   Clear
4:15 AM 39.9 °F 37.8 °F 36.9 °F 89% 30.11 in 10.0 mi SSE 3.5 mph - N/A   Clear
4:35 AM 38.7 °F 36.3 °F 36.7 °F 93% 30.12 in 10.0 mi SSE 3.5 mph - N/A   Clear
4:55 AM 37.9 °F 34.4 °F 35.6 °F 91% 30.12 in 10.0 mi South 4.6 mph - N/A   Clear
5:15 AM 38.3 °F 34.8 °F 36.1 °F 92% 30.12 in 10.0 mi South 4.6 mph - N/A   Clear
5:35 AM 40.1 °F 38.0 °F 36.5 °F 87% 30.12 in 10.0 mi South 3.5 mph - N/A   Clear
5:55 AM 40.3 °F 37.1 °F 36.1 °F 85% 30.12 in 10.0 mi SSE 4.6 mph - N/A   Clear
6:15 AM 41.7 °F 39.8 °F 36.5 °F 82% 30.11 in 10.0 mi SSE 3.5 mph - N/A   Clear
6:35 AM 39.2 °F 35.0 °F 35.6 °F 87% 30.10 in 10.0 mi South 5.8 mph - N/A   Clear
6:55 AM 40.6 °F 37.5 °F 36.1 °F 84% 30.12 in 10.0 mi South 4.6 mph - N/A   Clear
7:15 AM 41.0 °F 37.1 °F 36.7 °F 85% 30.12 in 10.0 mi South 5.8 mph - N/A   Clear
7:35 AM 43.0 °F 39.5 °F 37.9 °F 82% 30.12 in 10.0 mi South 5.8 mph - N/A   Clear
7:55 AM 46.4 °F 43.5 °F 39.7 °F 78% 30.12 in 10.0 mi SSW 5.8 mph - N/A   Clear
8:15 AM 48.6 °F - 40.5 °F 74% 30.12 in 10.0 mi SSW 6.9 mph - N/A   Clear
8:35 AM 50.4 °F - 40.6 °F 69% 30.12 in 10.0 mi SSW 10.4 mph - N/A   Clear
8:55 AM 52.5 °F - 41.5 °F 66% 30.12 in 10.0 mi SSW 10.4 mph 16.1 mph N/A   Clear
9:15 AM 53.8 °F - 41.5 °F 63% 30.12 in 10.0 mi SW 8.1 mph - N/A   Clear
9:35 AM 55.9 °F - 41.9 °F 59% 30.12 in 10.0 mi SW 6.9 mph - N/A   Clear
9:55 AM 56.7 °F - 41.7 °F 57% 30.12 in 10.0 mi SSW 10.4 mph - N/A   Clear
10:15 AM 58.5 °F - 42.6 °F 56% 30.11 in 10.0 mi SW 10.4 mph - N/A   Clear
10:35 AM 60.1 °F - 43.5 °F 54% 30.10 in 10.0 mi SW 6.9 mph - N/A   Clear
10:55 AM 61.3 °F - 43.3 °F 52% 30.10 in 10.0 mi SW 11.5 mph - N/A   Clear
11:15 AM 63.3 °F - 44.2 °F 50% 30.08 in 10.0 mi SW 11.5 mph - N/A   Clear
11:35 AM 63.0 °F - 43.5 °F 49% 30.08 in 10.0 mi SW 9.2 mph - N/A   Clear
11:55 AM 64.9 °F - 43.7 °F 46% 30.07 in 10.0 mi WSW 9.2 mph - N/A   Clear
12:15 PM 65.5 °F - 44.4 °F 46% 30.06 in 10.0 mi SSW 8.1 mph - N/A   Clear
12:35 PM 66.6 °F - 44.6 °F 45% 30.05 in 10.0 mi SW 11.5 mph - N/A   Clear
12:55 PM 66.6 °F - 44.1 °F 44% 30.05 in 10.0 mi WSW 6.9 mph 16.1 mph N/A   Clear
1:15 PM 66.6 °F - 44.6 °F 45% 30.04 in 10.0 mi WSW 9.2 mph - N/A   Clear
1:35 PM 68.2 °F - 44.6 °F 43% 30.02 in 10.0 mi SSW 13.8 mph 18.4 mph N/A   Clear
1:55 PM 67.8 °F - 44.4 °F 43% 30.02 in 10.0 mi SSW 12.7 mph 16.1 mph N/A   Clear
2:15 PM 68.2 °F - 44.2 °F 42% 30.02 in 10.0 mi SW 11.5 mph 19.6 mph N/A   Clear
2:35 PM 68.4 °F - 43.9 °F 41% 30.01 in 10.0 mi WSW 9.2 mph - N/A   Clear
2:55 PM 69.1 °F - 44.6 °F 41% 30.01 in 10.0 mi SW 10.4 mph - N/A   Clear
3:15 PM 68.9 °F - 44.1 °F 41% 30.00 in 10.0 mi SSW 9.2 mph - N/A   Clear
3:35 PM 66.7 °F - 43.5 °F 43% 30.00 in 10.0 mi SSW 8.1 mph - N/A   Clear
3:55 PM 67.1 °F - 45.1 °F 45% 29.98 in 10.0 mi SSW 8.1 mph - N/A   Clear
4:15 PM 66.6 °F - 44.4 °F 45% 29.98 in 10.0 mi SSW 9.2 mph - N/A   Clear
4:35 PM 66.2 °F - 44.6 °F 46% 29.98 in 10.0 mi SW 6.9 mph - N/A   Clear
4:55 PM 66.2 °F - 45.7 °F 48% 29.99 in 10.0 mi SW 4.6 mph - N/A   Clear
5:15 PM 66.4 °F - 45.0 °F 46% 29.98 in 10.0 mi SSW 8.1 mph - N/A   Clear
5:35 PM 65.3 °F - 44.6 °F 47% 29.98 in 10.0 mi SSW 6.9 mph - N/A   Clear
5:55 PM 64.8 °F - 44.6 °F 48% 30.00 in 10.0 mi WSW 3.5 mph - N/A   Clear
6:15 PM 63.9 °F - 45.5 °F 51% 30.00 in 10.0 mi Calm Calm - N/A   Clear
6:35 PM 61.5 °F - 47.7 °F 60% 29.99 in 10.0 mi Calm Calm - N/A   Clear
6:55 PM 60.3 °F - 47.8 °F 64% 29.98 in 10.0 mi South 3.5 mph - N/A   Clear
7:15 PM 61.2 °F - 46.4 °F 58% 29.98 in 10.0 mi SSW 5.8 mph - N/A   Clear
7:35 PM 61.7 °F - 46.0 °F 56% 29.98 in 10.0 mi SSW 5.8 mph - N/A   Clear
7:55 PM 61.9 °F - 45.5 °F 55% 29.97 in 10.0 mi South 5.8 mph - N/A   Clear
8:15 PM 61.0 °F - 45.5 °F 57% 29.97 in 10.0 mi South 6.9 mph - N/A   Scattered Clouds
8:35 PM 60.4 °F - 45.9 °F 59% 29.98 in 10.0 mi South 5.8 mph - N/A   Overcast
8:55 PM 59.2 °F - 48.4 °F 67% 29.99 in 10.0 mi SW 4.6 mph - N/A Rain Light Rain
9:15 PM 58.5 °F - 48.6 °F 70% 30.00 in 10.0 mi WSW 4.6 mph - N/A Rain Rain
9:35 PM 57.7 °F - 49.5 °F 74% 30.01 in 10.0 mi WSW 4.6 mph - N/A Rain Rain
9:55 PM 56.1 °F - 50.7 °F 82% 30.02 in 7.0 mi WSW 4.6 mph - 0.05 in Rain Rain
10:15 PM 54.7 °F - 51.6 °F 89% 30.02 in 10.0 mi WSW 3.5 mph - 0.02 in Rain Rain
10:35 PM 54.1 °F - 52.0 °F 92% 30.01 in 10.0 mi WNW 3.5 mph - 0.05 in Rain Rain
10:55 PM 53.6 °F - 52.3 °F 95% 30.00 in 7.0 mi Calm Calm - 0.10 in Rain Rain
11:15 PM 53.6 °F - 52.2 °F 95% 30.01 in 10.0 mi Calm Calm - 0.03 in Rain Rain
11:35 PM 53.6 °F - 52.0 °F 94% 30.01 in 10.0 mi SSW 4.6 mph - 0.05 in Rain Light Rain
11:55 PM 52.7 °F - 51.8 °F 97% 30.00 in 10.0 mi Calm Calm - 0.07 in Rain Rain